Location: Golden Pond Observatory
(36.7667°N, 88.0167°W)
Time: 17:19:22
(UTC-05:00)

ISS - Pass Details

Date: 20 July 2018
Orbit: 401 x 409 km, 51.6° (Epoch: 19 August)

Event Time Altitude Azimuth Distance (km) Brightness Sun altitude
Rises 04:33:11 0° 312° (NW) 2,340 -0.1 -13.5°
Reaches altitude 10° 04:35:17 10° 315° (NW) 1,477 -1.1 -13.2°
Maximum altitude 04:38:35 71° 39° (NE) 437 -3.5 -12.6°
Drops below altitude 10° 04:41:53 10° 125° (SE) 1,470 -0.8 -12.1°
Sets 04:43:58 0° 127° (SE) 2,328 0.2 -11.8°
